This demonstration page uses our WeatherBlox Daily Observations layout. Learn more.

Left ArrowRight Arrow

Hourly Observations for December 26, 2017

Temp ( °F °C ) Dew Point ( °F °C ) Humidity (%) Winds ( mph kmh ) Pressure ( in mb ) Visibility ( mi km ) Precip ( " mm )
12:53 am 00:53 Clear 37 2.8 32 0 82 82 ESE 6 9 29.98 1015 10 16 0.00 0.00
1:53 am 01:53 Clear 36 2.2 32 0 86 86 Calm 29.98 1015 10 16 0.00 0.00
2:53 am 02:53 Clear 30 -1.1 28 -2.2 92 92 NNE 7 11 30.00 1016 10 16 0.00 0.00
3:53 am 03:53 Clear 28 -2.2 27 -2.8 96 96 NNE 6 9 30.01 1016 10 16 0.00 0.00
4:53 am 04:53 Clear 26 -3.3 25 -3.9 96 96 N 7 11 30.01 1016 10 16 0.00 0.00
5:53 am 05:53 Clear 26 -3.3 24 -4.4 92 92 N 8 13 30.02 1017 10 16 0.00 0.00
6:53 am 06:53 Clear 27 -2.8 25 -3.9 92 92 NE 8 13 30.07 1018 10 16 0.00 0.00
7:53 am 07:53 Sunny 29 -1.7 27 -2.8 92 92 N 8 13 30.10 1019 10 16 0.00 0.00
8:53 am 08:53 Sunny 34 1.1 31 -0.6 89 89 N 6 9 30.14 1021 10 16 0.00 0.00
9:53 am 09:53 Sunny 40 4.4 27 -2.8 60 60 NNE 16 26 30.14 1021 10 16 0.00 0.00
10:53 am 10:53 Sunny 45 7.2 26 -3.3 48 48 NNE 15 24 30.16 1021 10 16 0.00 0.00
11:53 am 11:53 Sunny 50 10 27 -2.8 41 41 NNE 12 19 30.15 1021 10 16 0.00 0.00
12:53 pm 12:53 Sunny 53 11.7 29 -1.7 40 40 NE 8 13 30.14 1021 10 16 0.00 0.00
1:53 pm 13:53 Sunny 54 12.2 30 -1.1 40 40 NE 14 22 30.10 1019 10 16 0.00 0.00
2:53 pm 14:53 Sunny 54 12.2 29 -1.7 38 38 E 10 17 30.10 1019 10 16 0.00 0.00
3:53 pm 15:53 Sunny 53 11.7 29 -1.7 40 40 E 12 19 30.12 1020 10 16 0.00 0.00
4:53 pm 16:53 Sunny 49 9.4 31 -0.6 50 50 E 15 24 30.14 1021 10 16 0.00 0.00
5:53 pm 17:53 Sunny 45 7.2 32 0 61 61 E 12 19 30.18 1022 10 16 0.00 0.00
6:53 pm 18:53 Clear 41 5 30 -1.1 65 65 E 12 19 30.22 1023 10 16 0.00 0.00
7:53 pm 19:53 Clear 37 2.8 30 -1.1 76 76 ENE 14 22 30.26 1025 10 16 0.00 0.00
8:53 pm 20:53 Mostly Cloudy 36 2.2 31 -0.6 82 82 ENE 13 20 30.27 1025 10 16 0.00 0.00
9:26 pm 21:26 Cloudy 35 1.7 31 -0.6 85 85 ENE 14 22 30.36 1028 10 16 0.00 0.00
9:53 pm 21:53 Cloudy 34 1.1 30 -1.1 85 85 ENE 14 22 30.30 1026 10 16 0.00 0.00
10:53 pm 22:53 Cloudy 31 -0.6 27 -2.8 85 85 NE 16 26 30.33 1027 10 16 0.00 0.00
11:53 pm 23:53 Cloudy 29 -1.7 25 -3.9 85 85 ENE 12 19 30.34 1027 10 16 0.00 0.00

Powered by AerisWeather